| time (UTC) | temp C | wind direction | speed KPH | gust KPH | rain 1hr cm | rain 24hr cm | rain mn cm | humidity % | barometer mb |
| 20260505034605 | 12 | 237 | 0.0 | 0.0 | 0.00 | 0.00 | 0.00 | 88 | 1010.8 |
| 20260505034102 | 12 | 237 | 0.0 | 0.0 | 0.00 | 0.00 | 0.00 | 88 | 1010.9 |
| 20260505033559 | 11 | 237 | 0.0 | 0.0 | 0.00 | 0.00 | 0.00 | 88 | 1011.0 |
| 20260505033058 | 11 | 237 | 0.0 | 0.0 | 0.00 | 0.00 | 0.00 | 87 | 1011.0 |
| 20260505032555 | 12 | 237 | 0.0 | 0.0 | 0.00 | 0.00 | 0.00 | 86 | 1011.0 |
| 20260505032051 | 12 | 237 | 0.0 | 0.0 | 0.00 | 0.00 | 0.00 | 85 | 1011.0 |
| 20260505031549 | 12 | 237 | 0.0 | 0.0 | 0.00 | 0.00 | 0.00 | 84 | 1010.9 |
| 20260505031045 | 13 | 237 | 0.0 | 0.0 | 0.00 | 0.00 | 0.00 | 84 | 1010.9 |
| 20260505030542 | 12 | 237 | 0.0 | 0.0 | 0.00 | 0.00 | 0.00 | 84 | 1010.9 |
| 20260505030038 | 12 | 237 | 0.0 | 0.0 | 0.00 | 0.00 | 0.00 | 85 | 1011.0 |
| 20260505025533 | 12 | 237 | 0.0 | 0.0 | 0.00 | 0.00 | 0.00 | 85 | 1011.1 |
| 20260505025033 | 12 | 237 | 0.0 | 0.0 | 0.00 | 0.00 | 0.00 | 84 | 1010.9 |
| 20260505024529 | 12 | 237 | 0.0 | 0.0 | 0.00 | 0.00 | 0.00 | 83 | 1010.8 |
| 20260505024026 | 13 | 237 | 0.0 | 0.0 | 0.00 | 0.00 | 0.00 | 82 | 1011.0 |
| 20260505023523 | 13 | 237 | 0.0 | 0.0 | 0.00 | 0.00 | 0.00 | 80 | 1011.2 |
| 20260505023021 | 13 | 237 | 0.0 | 0.0 | 0.00 | 0.00 | 0.00 | 80 | 1011.1 |
| 20260505022519 | 13 | 237 | 0.0 | 0.0 | 0.00 | 0.00 | 0.00 | 78 | 1010.9 |
| 20260505022015 | 14 | 237 | 0.0 | 0.0 | 0.00 | 0.00 | 0.00 | 76 | 1010.9 |
| 20260505021512 | 14 | 237 | 0.0 | 0.0 | 0.00 | 0.00 | 0.00 | 77 | 1010.8 |
| 20260505021008 | 14 | 237 | 0.0 | 3.2 | 0.00 | 0.00 | 0.00 | 77 | 1010.9 |
| 20260505020503 | 14 | 237 | 0.0 | 1.6 | 0.00 | 0.00 | 0.00 | 76 | 1010.7 |
| 20260505020000 | 15 | 237 | 0.0 | 1.6 | 0.00 | 0.00 | 0.00 | 75 | 1010.8 |
| 20260505015457 | 16 | 237 | 1.6 | 3.2 | 0.00 | 0.00 | 0.00 | 72 | 1010.9 |
| 20260505014954 | 15 | 237 | 0.0 | 1.6 | 0.00 | 0.00 | 0.00 | 70 | 1010.8 |
| 20260505014451 | 15 | 237 | 1.6 | 3.2 | 0.00 | 0.00 | 0.00 | 72 | 1010.9 |
| 20260505013948 | 15 | 237 | 0.0 | 1.6 | 0.00 | 0.00 | 0.00 | 73 | 1010.9 |
| 20260505013445 | 15 | 237 | 1.6 | 3.2 | 0.00 | 0.00 | 0.00 | 72 | 1010.7 |
| 20260505012943 | 15 | 237 | 0.0 | 0.0 | 0.00 | 0.00 | 0.00 | 72 | 1010.9 |
| 20260505012441 | 15 | 236 | 0.0 | 0.0 | 0.00 | 0.00 | 0.00 | 71 | 1010.8 |
| 20260505011937 | 15 | 236 | 0.0 | 1.6 | 0.00 | 0.00 | 0.00 | 70 | 1010.7 |
| 20260505011433 | 15 | 237 | 0.0 | 0.0 | 0.00 | 0.00 | 0.00 | 73 | 1010.7 |
| 20260505010930 | 15 | 237 | 0.0 | 0.0 | 0.00 | 0.00 | 0.00 | 74 | 1010.7 |
| 20260505010426 | 15 | 237 | 0.0 | 0.0 | 0.00 | 0.00 | 0.00 | 73 | 1010.7 |
| 20260505005922 | 15 | 237 | 0.0 | 0.0 | 0.00 | 0.00 | 0.00 | 72 | 1011.0 |
| 20260505005419 | 16 | 237 | 0.0 | 0.0 | 0.00 | 0.00 | 0.00 | 70 | 1010.8 |
| 20260505004916 | 16 | 236 | 0.0 | 0.0 | 0.00 | 0.00 | 0.00 | 69 | 1011.0 |
| 20260505004413 | 16 | 236 | 0.0 | 0.0 | 0.00 | 0.00 | 0.00 | 68 | 1010.8 |
| 20260505003910 | 16 | 237 | 0.0 | 0.0 | 0.00 | 0.00 | 0.00 | 66 | 1010.8 |
| 20260505003407 | 16 | 236 | 0.0 | 0.0 | 0.00 | 0.00 | 0.00 | 66 | 1010.7 |
| 20260505002903 | 16 | 237 | 0.0 | 0.0 | 0.00 | 0.00 | 0.00 | 68 | 1010.9 |
| 20260505002400 | 17 | 236 | 0.0 | 0.0 | 0.00 | 0.00 | 0.00 | 68 | 1010.8 |
| 20260505001858 | 17 | 236 | 0.0 | 0.0 | 0.00 | 0.00 | 0.00 | 67 | 1010.9 |
| 20260505001355 | 17 | 236 | 0.0 | 0.0 | 0.00 | 0.00 | 0.00 | 63 | 1010.8 |
| 20260505000853 | 18 | 236 | 0.0 | 0.0 | 0.00 | 0.00 | 0.00 | 61 | 1010.8 |
| 20260505000351 | 18 | 236 | 0.0 | 0.0 | 0.00 | 0.00 | 0.00 | 60 | 1010.8 |
| 20260504235846 | 18 | 236 | 0.0 | 0.0 | 0.00 | 0.00 | 0.00 | 58 | 1011.0 |
| 20260504235344 | 18 | 237 | 0.0 | 0.0 | 0.00 | 0.00 | 0.00 | 57 | 1011.0 |
| 20260504234840 | 19 | 236 | 0.0 | 0.0 | 0.00 | 0.00 | 0.00 | 55 | 1010.8 |
| 20260504234338 | 20 | 237 | 0.0 | 1.6 | 0.00 | 0.00 | 0.00 | 54 | 1011.1 |
| 20260504233834 | 20 | 236 | 1.6 | 3.2 | 0.00 | 0.00 | 0.00 | 53 | 1011.0 |
| 20260504233330 | 20 | 236 | 3.2 | 3.2 | 0.00 | 0.00 | 0.00 | 52 | 1011.0 |
| 20260504232827 | 21 | 236 | 0.0 | 1.6 | 0.00 | 0.00 | 0.00 | 51 | 1010.9 |
| 20260504232324 | 21 | 236 | 1.6 | 4.8 | 0.00 | 0.00 | 0.00 | 50 | 1011.0 |
| 20260504231821 | 21 | 228 | 3.2 | 9.7 | 0.00 | 0.00 | 0.00 | 49 | 1011.1 |
| 20260504231317 | 21 | 226 | 1.6 | 6.4 | 0.00 | 0.00 | 0.00 | 50 | 1011.0 |
| 20260504230813 | 21 | 259 | 6.4 | 9.7 | 0.00 | 0.00 | 0.00 | 49 | 1011.2 |
| 20260504230311 | 21 | 200 | 6.4 | 9.7 | 0.00 | 0.00 | 0.00 | 48 | 1011.1 |
| 20260504225810 | 21 | 223 | 3.2 | 11.3 | 0.00 | 0.00 | 0.00 | 48 | 1011.1 |
| 20260504225306 | 21 | 227 | 4.8 | 11.3 | 0.00 | 0.00 | 0.00 | 49 | 1011.0 |
| 20260504224803 | 21 | 263 | 3.2 | 4.8 | 0.00 | 0.00 | 0.00 | 51 | 1011.1 |
| 20260504224300 | 21 | 262 | 3.2 | 12.9 | 0.00 | 0.00 | 0.00 | 49 | 1011.1 |
| 20260504223757 | 21 | 195 | 4.8 | 6.4 | 0.00 | 0.00 | 0.00 | 48 | 1011.2 |
| 20260504223252 | 21 | 202 | 3.2 | 6.4 | 0.00 | 0.00 | 0.00 | 49 | 1011.2 |
| 20260504222749 | 21 | 215 | 6.4 | 9.7 | 0.00 | 0.00 | 0.00 | 49 | 1011.0 |
| 20260504222246 | 21 | 243 | 4.8 | 12.9 | 0.00 | 0.00 | 0.00 | 47 | 1011.2 |
| 20260504221744 | 21 | 247 | 3.2 | 4.8 | 0.00 | 0.00 | 0.00 | 48 | 1011.1 |
| 20260504221241 | 21 | 202 | 3.2 | 4.8 | 0.00 | 0.00 | 0.00 | 48 | 1011.1 |
| 20260504220737 | 21 | 240 | 6.4 | 6.4 | 0.00 | 0.00 | 0.00 | 48 | 1011.2 |
| 20260504220235 | 21 | 247 | 1.6 | 6.4 | 0.00 | 0.00 | 0.00 | 50 | 1011.2 |
| 20260504215732 | 21 | 260 | 6.4 | 14.5 | 0.00 | 0.00 | 0.00 | 50 | 1011.2 |
| 20260504215228 | 21 | 223 | 4.8 | 11.3 | 0.00 | 0.00 | 0.00 | 48 | 1011.3 |
| 20260504214724 | 21 | 239 | 6.4 | 9.7 | 0.00 | 0.00 | 0.00 | 48 | 1011.4 |
| 20260504214221 | 21 | 242 | 6.4 | 17.7 | 0.00 | 0.00 | 0.00 | 51 | 1011.3 |
| 20260504213718 | 21 | 261 | 8.0 | 12.9 | 0.00 | 0.00 | 0.00 | 49 | 1011.3 |
| 20260504213214 | 21 | 258 | 6.4 | 11.3 | 0.00 | 0.00 | 0.00 | 48 | 1011.0 |
| 20260504212711 | 21 | 223 | 9.7 | 14.5 | 0.00 | 0.00 | 0.00 | 48 | 1010.8 |
| 20260504212208 | 22 | 169 | 8.0 | 16.1 | 0.00 | 0.00 | 0.00 | 47 | 1010.8 |
| 20260504211705 | 22 | 236 | 8.0 | 16.1 | 0.00 | 0.00 | 0.00 | 46 | 1010.8 |
| 20260504211201 | 22 | 203 | 4.8 | 27.4 | 0.00 | 0.00 | 0.00 | 47 | 1010.8 |
| 20260504210659 | 22 | 199 | 8.0 | 11.3 | 0.00 | 0.00 | 0.00 | 47 | 1010.8 |
| 20260504210155 | 21 | 211 | 8.0 | 11.3 | 0.00 | 0.00 | 0.00 | 48 | 1011.0 |
| 20260504205653 | 21 | 255 | 6.4 | 12.9 | 0.00 | 0.00 | 0.00 | 48 | 1011.0 |
| 20260504205150 | 21 | 277 | 6.4 | 12.9 | 0.00 | 0.00 | 0.00 | 49 | 1011.1 |
| 20260504204648 | 21 | 215 | 8.0 | 16.1 | 0.00 | 0.00 | 0.00 | 46 | 1011.0 |
| 20260504204147 | 21 | 230 | 6.4 | 11.3 | 0.00 | 0.00 | 0.00 | 47 | 1010.9 |
| 20260504203645 | 22 | 266 | 9.7 | 20.9 | 0.00 | 0.00 | 0.00 | 47 | 1011.0 |
| 20260504203143 | 22 | 240 | 8.0 | 11.3 | 0.00 | 0.00 | 0.00 | 48 | 1011.2 |
| 20260504202642 | 21 | 237 | 8.0 | 12.9 | 0.00 | 0.00 | 0.00 | 48 | 1011.1 |
| 20260504202140 | 21 | 222 | 4.8 | 11.3 | 0.00 | 0.00 | 0.00 | 48 | 1011.2 |
| 20260504201636 | 21 | 168 | 4.8 | 11.3 | 0.00 | 0.00 | 0.00 | 47 | 1011.1 |
| 20260504201134 | 21 | 271 | 4.8 | 9.7 | 0.00 | 0.00 | 0.00 | 48 | 1011.1 |
| 20260504200631 | 21 | 254 | 6.4 | 9.7 | 0.00 | 0.00 | 0.00 | 48 | 1011.1 |
| 20260504200128 | 21 | 277 | 6.4 | 14.5 | 0.00 | 0.00 | 0.00 | 46 | 1011.3 |
| 20260504195623 | 22 | 243 | 11.3 | 16.1 | 0.00 | 0.00 | 0.00 | 45 | 1011.2 |
| 20260504195120 | 21 | 212 | 8.0 | 12.9 | 0.00 | 0.00 | 0.00 | 47 | 1011.1 |
| 20260504194617 | 22 | 207 | 8.0 | 17.7 | 0.00 | 0.00 | 0.00 | 47 | 1011.3 |
| 20260504194112 | 22 | 257 | 6.4 | 14.5 | 0.00 | 0.00 | 0.00 | 48 | 1011.3 |
| 20260504193609 | 21 | 251 | 6.4 | 12.9 | 0.00 | 0.00 | 0.00 | 49 | 1011.4 |
| 20260504193108 | 21 | 227 | 3.2 | 11.3 | 0.00 | 0.00 | 0.00 | 49 | 1011.6 |
| 20260504192606 | 21 | 256 | 9.7 | 14.5 | 0.00 | 0.00 | 0.00 | 50 | 1011.6 |
| 20260504192103 | 21 | 240 | 11.3 | 16.1 | 0.00 | 0.00 | 0.00 | 47 | 1011.6 |
| 20260504191601 | 21 | 244 | 12.9 | 17.7 | 0.00 | 0.00 | 0.00 | 47 | 1011.5 |
| 20260504191057 | 21 | 269 | 8.0 | 11.3 | 0.00 | 0.00 | 0.00 | 48 | 1011.5 |
| 20260504190554 | 21 | 270 | 6.4 | 14.5 | 0.00 | 0.00 | 0.00 | 48 | 1011.4 |
| 20260504190050 | 22 | 269 | 6.4 | 22.5 | 0.00 | 0.00 | 0.00 | 46 | 1011.2 |
| 20260504185547 | 21 | 145 | 14.5 | 24.1 | 0.00 | 0.00 | 0.00 | 49 | 1011.4 |
| 20260504185044 | 22 | 251 | 8.0 | 12.9 | 0.00 | 0.00 | 0.00 | 48 | 1011.5 |
| 20260504184539 | 21 | 275 | 9.7 | 11.3 | 0.00 | 0.00 | 0.00 | 47 | 1011.6 |
| 20260504184035 | 22 | 53 | 6.4 | 20.9 | 0.00 | 0.00 | 0.00 | 46 | 1011.7 |
| 20260504183532 | 21 | 268 | 9.7 | 14.5 | 0.00 | 0.00 | 0.00 | 48 | 1011.6 |
| 20260504183030 | 21 | 246 | 9.7 | 14.5 | 0.00 | 0.00 | 0.00 | 50 | 1011.8 |
| 20260504182526 | 21 | 238 | 6.4 | 20.9 | 0.00 | 0.00 | 0.00 | 49 | 1011.9 |
| 20260504182024 | 21 | 251 | 6.4 | 16.1 | 0.00 | 0.00 | 0.00 | 51 | 1011.8 |
| 20260504181521 | 21 | 223 | 4.8 | 12.9 | 0.00 | 0.00 | 0.00 | 48 | 1012.0 |
| 20260504181020 | 21 | 152 | 14.5 | 29.0 | 0.00 | 0.00 | 0.00 | 47 | 1012.0 |
| 20260504180518 | 21 | 228 | 11.3 | 25.7 | 0.00 | 0.00 | 0.00 | 49 | 1012.2 |
| 20260504180016 | 21 | 257 | 6.4 | 12.9 | 0.00 | 0.00 | 0.00 | 49 | 1012.0 |
| 20260504175513 | 21 | 264 | 8.0 | 12.9 | 0.00 | 0.00 | 0.00 | 50 | 1012.6 |
| 20260504175010 | 20 | 222 | 12.9 | 16.1 | 0.00 | 0.00 | 0.00 | 49 | 1012.4 |
| 20260504174508 | 20 | 261 | 8.0 | 17.7 | 0.00 | 0.00 | 0.00 | 53 | 1012.5 |
| 20260504174004 | 20 | 223 | 6.4 | 16.1 | 0.00 | 0.00 | 0.00 | 53 | 1012.6 |
| 20260504173501 | 20 | 283 | 8.0 | 11.3 | 0.00 | 0.00 | 0.00 | 53 | 1012.7 |
| 20260504172959 | 19 | 183 | 9.7 | 20.9 | 0.00 | 0.00 | 0.00 | 54 | 1012.9 |
| 20260504172454 | 19 | 192 | 14.5 | 22.5 | 0.00 | 0.00 | 0.00 | 52 | 1013.0 |
| 20260504171951 | 20 | 249 | 9.7 | 14.5 | 0.00 | 0.00 | 0.00 | 51 | 1013.1 |
| 20260504171448 | 19 | 190 | 8.0 | 24.1 | 0.00 | 0.00 | 0.00 | 55 | 1013.2 |
| 20260504170945 | 19 | 203 | 11.3 | 20.9 | 0.00 | 0.00 | 0.00 | 54 | 1013.5 |
| 20260504170441 | 18 | 227 | 9.7 | 25.7 | 0.00 | 0.00 | 0.00 | 50 | 1013.1 |
| 20260504160401 | 17 | 263 | 4.8 | 6.4 | 0.00 | 0.00 | 0.00 | 59 | 1014.7 |
| 20260504150825 | 16 | 254 | 8.0 | 11.3 | 0.00 | 0.00 | 0.00 | 55 | 1015.0 |
| 20260504150322 | 17 | 205 | 1.6 | 6.4 | 0.00 | 0.00 | 0.00 | 58 | 1014.8 |
| 20260504141252 | 16 | 242 | 8.0 | 22.5 | 0.00 | 0.00 | 0.00 | 53 | 1014.8 |
| 20260504140748 | 16 | 233 | 11.3 | 20.9 | 0.00 | 0.00 | 0.00 | 52 | 1014.8 |
| 20260504140244 | 16 | 245 | 9.7 | 14.5 | 0.00 | 0.00 | 0.00 | 52 | 1014.9 |
| 20260504130713 | 15 | 189 | 16.1 | 17.7 | 0.00 | 0.00 | 0.00 | 54 | 1014.7 |
| 20260504130208 | 15 | 227 | 4.8 | 9.7 | 0.00 | 0.00 | 0.00 | 55 | 1014.6 |
| 20260504120132 | 11 | 207 | 3.2 | 4.8 | 0.00 | 0.00 | 0.00 | 69 | 1014.6 |
| 20260504110600 | 9 | 207 | 3.2 | 3.2 | 0.00 | 0.00 | 0.00 | 76 | 1014.8 |
| 20260504100522 | 8 | 203 | 1.6 | 3.2 | 0.00 | 0.00 | 0.00 | 80 | 1014.9 |
| 20260504081915 | 8 | 175 | 3.2 | 4.8 | 0.00 | 0.00 | 0.00 | 79 | 1015.6 |
| 20260504081412 | 8 | 197 | 0.0 | 0.0 | 0.00 | 0.00 | 0.00 | 80 | 1015.5 |
| 20260504080908 | 8 | 197 | 0.0 | 0.0 | 0.00 | 0.00 | 0.00 | 79 | 1015.5 |
| 20260504080405 | 8 | 197 | 0.0 | 0.0 | 0.00 | 0.00 | 0.00 | 78 | 1015.4 |
| 20260504070332 | 10 | 197 | 0.0 | 3.2 | 0.00 | 0.00 | 0.00 | 72 | 1016.0 |
| 20260504050721 | 7 | 284 | 0.0 | 0.0 | 0.00 | 0.00 | 0.00 | 73 | 1016.3 |
| 20260504050218 | 7 | 284 | 0.0 | 0.0 | 0.00 | 0.00 | 0.00 | 73 | 1016.3 |
| 20260504045715 | 7 | 284 | 0.0 | 0.0 | 0.00 | 0.00 | 0.00 | 72 | 1016.1 |
| 20260504045215 | 7 | 284 | 1.6 | 1.6 | 0.00 | 0.00 | 0.00 | 73 | 1016.4 |
| 20260504044713 | 7 | 284 | 0.0 | 0.0 | 0.00 | 0.00 | 0.00 | 73 | 1016.4 |
| 20260504044210 | 7 | 284 | 0.0 | 0.0 | 0.00 | 0.00 | 0.00 | 73 | 1016.5 |
| 20260504043707 | 7 | 284 | 0.0 | 0.0 | 0.00 | 0.00 | 0.00 | 73 | 1016.6 |
| 20260504043204 | 7 | 284 | 0.0 | 1.6 | 0.00 | 0.00 | 0.00 | 73 | 1016.3 |
| 20260504042701 | 7 | 284 | 0.0 | 0.0 | 0.00 | 0.00 | 0.00 | 72 | 1016.4 |
| 20260504042158 | 7 | 284 | 0.0 | 1.6 | 0.00 | 0.00 | 0.00 | 72 | 1016.4 |
| 20260504041654 | 7 | 284 | 0.0 | 0.0 | 0.00 | 0.00 | 0.00 | 73 | 1016.3 |
| 20260504041150 | 7 | 284 | 0.0 | 0.0 | 0.00 | 0.00 | 0.00 | 74 | 1016.3 |
| 20260504040647 | 7 | 284 | 0.0 | 0.0 | 0.00 | 0.00 | 0.00 | 72 | 1016.3 |
| 20260504040144 | 7 | 284 | 0.0 | 0.0 | 0.00 | 0.00 | 0.00 | 70 | 1016.1 |
| 20260504035640 | 7 | 284 | 0.0 | 0.0 | 0.00 | 0.00 | 0.00 | 68 | 1016.3 |
| 20260504035137 | 8 | 284 | 0.0 | 0.0 | 0.00 | 0.00 | 0.00 | 66 | 1016.4 |